[[{"header":{"parameterUnit":"m.s-1","parameterCategory":2,"la1":30.2991,"la2":30.254,"lo1":-89.0895,"lo2":-89.0444,"dy":0.0017,"dx":0.0017,"nx":28,"ny":28,"refTime":"2025-05-20T03:00:00:Z","depth":"0","parameterNumber":2,"parameterNumberName":"U-component_of_CURRENTS"},"data":[0,0,0,0,0,0,0,0,0,0,0,0,0,0,0,0,0,0,0,0,0,0,0,0,0,0,0,0,0,0,0,0,0,0,0,0,0,0,0,0,0,0,0,0,0,0,0,0,0,0,0,0,0,0,0,0,0,0,0.134,0.1342,0,0.1421,0.1422,0.1423,0.1459,0.1459,0.1459,0.146,0.149,0.1491,0.1492,0,0,0,0,0,0,0,0,0,0,0,0,0,0.1213,0.1214,0.134,0.1342,0.1343,0.1421,0.1422,0.1423,0.1459,0.1459,0.1459,0.146,0.149,0.1491,0.1492,0,0,0,0,0,0,0,0,0,0,0,0,0,0.1274,0.1215,0.134,0.1374,0.1378,0.1421,0.1422,0.1423,0.1459,0.1459,0.146,0.146,0.149,0.1491,0.1492,0.1487,0,0,0.1494,0.1494,0,0,0,0,0,0,0,0,0.127,0.1278,0.1367,0.1372,0.1376,0.1434,0.1389,0.1443,0.1458,0.1423,0.146,0.146,0.147,0.1472,0.1481,0.1489,0.149,0.1494,0.1495,0.1495,0.1495,0,0,0,0,0,0,0,0.1266,0.1275,0.1368,0.1369,0.1375,0.1384,0.1393,0.1399,0.1438,0.1426,0.143,0.1446,0.1471,0.148,0.1482,0.1491,0.1494,0.1495,0.1495,0.1496,0.1685,0.169,0,0,0,0,0,0,0.1265,0.1271,0.1365,0.1371,0.1329,0.1386,0.1396,0.1412,0.144,0.1446,0.1446,0.1448,0.1478,0.1481,0.1483,0.1607,0.1495,0.1496,0.1496,0.1681,0.1686,0.1691,0,0,0,0,0,0,0.1262,0.1273,0.1362,0.1326,0.1339,0.1388,0.1406,0.1413,0.1424,0.1456,0.146,0.145,0.1479,0.1482,0.151,0.1604,0.1496,0.1497,0.1675,0.1683,0.1689,0.1774,0,0,0,0,0,0,0.1258,0.1271,0.1277,0.1326,0.1341,0.1393,0.1406,0.1415,0.1436,0.1439,0.1461,0.1464,0.1479,0.1509,0.1511,0.1603,0.1497,0.167,0.1679,0.1687,0.1766,0.1783,0.1798,0,0,0,0,0,0.1253,0.1272,0.1277,0.1289,0.135,0.1394,0.1402,0.1435,0.1435,0.1444,0.147,0.1464,0.1568,0.151,0.1512,0.1608,0.1666,0.1676,0.1686,0.1758,0.178,0.1798,0,0,0,0,0,0,0.1234,0.1279,0.1286,0.132,0.1353,0.1402,0.142,0.1431,0.1456,0.1458,0.1476,0.1482,0.1557,0.1564,0.1502,0.1698,0.1634,0.1645,0.1689,0.1709,0.1725,0.1751,0.1498,0,0,0,0,0,0.1228,0.1247,0.1292,0.132,0.1334,0.1369,0.1388,0.1408,0.1442,0.1453,0.1471,0.1523,0.1602,0.1633,0.1675,0.1744,0.177,0.1827,0.1843,0.1856,0.1886,0.2004,0.2033,0.1725,0.1725,0.1725,0,0,0.1232,0.1258,0.1272,0.1315,0.1341,0.14,0.1381,0.1414,0.1481,0.145,0.1526,0.1553,0.1629,0.1731,0.177,0.1746,0.1955,0.1869,0.188,0.1902,0.2018,0.2047,0.2074,0.1732,0.1731,0.173,0,0,0.1272,0.1268,0.1309,0.1334,0.1376,0.1407,0.1415,0.1456,0.1488,0.1541,0.1585,0.1671,0.1723,0.1844,0.1906,0.2037,0.2025,0.2051,0.2163,0.2277,0.2303,0.2326,0.2372,0.2398,0.2074,0.2074,0.2074,0,0.1282,0.1353,0.1327,0.1379,0.1434,0.1417,0.15,0.1527,0.1575,0.1622,0.1577,0.1759,0.1809,0.2017,0.2085,0.208,0.2098,0.2071,0.2296,0.2319,0.2341,0.2383,0.2411,0.208,0.2079,0.2078,0.2078,0,0.137,0.1425,0.1451,0.1525,0.1555,0.1621,0.1659,0.1683,0.1699,0.1744,0.1877,0.1941,0.2062,0.2118,0.2141,0.236,0.2304,0.2283,0.2233,0.2377,0.2412,0.244,0.2087,0.2085,0.2084,0.2082,0,0,0.1446,0.151,0.1531,0.1577,0.1651,0.1679,0.1778,0.1884,0.1945,0.1984,0.2103,0.2275,0.2272,0.235,0.2401,0.2521,0.2693,0.2471,0.2475,0.2495,0.289,0.277,0.2787,0.2689,0.2695,0.27,0.284,0,0.1561,0.1677,0.1696,0.1821,0.1891,0.1901,0.199,0.2051,0.2092,0.2169,0.2271,0.2376,0.2375,0.2428,0.2558,0.2652,0.2774,0.2654,0.2769,0.2773,0.2632,0.282,0.2713,0.2823,0.2867,0.2871,0.2875,0,0.1689,0.1748,0.1888,0.1968,0.1999,0.2057,0.2167,0.2237,0.2334,0.236,0.2469,0.2493,0.27,0.2642,0.2898,0.2803,0.2875,0.2931,0.2937,0.2822,0.2707,0.2698,0.2871,0.2754,0.2916,0.2913,0.291,0,0.1773,0.1895,0.2007,0.2041,0.212,0.2174,0.2218,0.2301,0.2352,0.2474,0.2498,0.2691,0.2761,0.2913,0.2998,0.2964,0.3214,0.3182,0.3149,0.3137,0.3073,0.3046,0.3136,0.3391,0.339,0.339,0.339,0,0.192,0.2,0.2034,0.2089,0.218,0.2214,0.231,0.236,0.2444,0.2503,0.2588,0.2663,0.2828,0.2946,0.3049,0.3165,0.3262,0.3217,0.3202,0.3095,0.3069,0.298,0.2932,0.3395,0.3394,0.3393,0.3392,0,0.2002,0.2047,0.2135,0.2206,0.2217,0.2263,0.231,0.2356,0.2436,0.2513,0.2548,0.2673,0.2824,0.295,0.3177,0.3201,0.3248,0.3357,0.3175,0.3136,0.2976,0.2936,0.296,0.2862,0.3378,0.3377,0.3375,0,0.2055,0.2112,0.217,0.2181,0.2209,0.2259,0.2279,0.2349,0.2381,0.2508,0.2538,0.2686,0.2762,0.3002,0.312,0.3277,0.3195,0.3227,0.3185,0.2998,0.2946,0.2834,0.2742,0.3131,0.3127,0.3125,0.3123,0,0.2121,0.213,0.2179,0.2195,0.2207,0.2224,0.2254,0.2274,0.2348,0.2405,0.2479,0.2554,0.2755,0.2855,0.3015,0.3105,0.3042,0.3174,0.3081,0.2862,0.2658,0.2541,0.2947,0.3099,0.3101,0.3103,0.3104,0.3105,0.2122,0.2141,0.2164,0.2181,0.2179,0.2155,0.2146,0.2173,0.22,0.225,0.2378,0.2449,0.262,0.2839,0.2895,0.287,0.2889,0.282,0.2817,0.2743,0.2567,0.2874,0.2931,0.2932,0.2933,0.2934,0.2935,0,0.2095,0.2108,0.2127,0.2111,0.2075,0.2098,0.2089,0.2058,0.2043,0.2136,0.2193,0.2329,0.2423,0.2551,0.2617,0.2536,0.2458,0.2458,0.2318,0.2269,0.2652,0.2553,0.2408,0.2408,0.2408,0.2408,0.2408,0.2409,0.2067,0.2065,0.2074,0.1996,0.1977,0.1893,0.1869,0.1845,0.1877,0.1892,0.1947,0.2063,0.222,0.2328,0.2272,0.2236,0.2075,0.1994,0.1966,0.2257,0.2291,0.2322,0.2218,0.2006,0.2005,0.1494,0.149,0.1487]},{"header":{"parameterUnit":"m.s-1","parameterCategory":2,"la1":30.2991,"la2":30.254,"lo1":-89.0895,"lo2":-89.0444,"dy":0.0017,"dx":0.0017,"nx":28,"ny":28,"refTime":"2025-05-20T03:00:00:Z","depth":"0","parameterNumber":3,"parameterNumberName":"V-component_of_CURRENTS"},"data":[0,0,0,0,0,0,0,0,0,0,0,0,0,0,0,0,0,0,0,0,0,0,0,0,0,0,0,0,0,0,0,0,0,0,0,0,0,0,0,0,0,0,0,0,0,0,0,0,0,0,0,0,0,0,0,0,0,0,-0.0258,-0.0258,0,-0.0267,-0.0267,-0.0266,-0.0287,-0.0288,-0.0289,-0.0289,-0.027,-0.0269,-0.0268,0,0,0,0,0,0,0,0,0,0,0,0,0,-0.0248,-0.0248,-0.0258,-0.0258,-0.0258,-0.0267,-0.0267,-0.0266,-0.0287,-0.0288,-0.0289,-0.029,-0.027,-0.0269,-0.0268,0,0,0,0,0,0,0,0,0,0,0,0,0,-0.0252,-0.0248,-0.0258,-0.0272,-0.0273,-0.0267,-0.0267,-0.0266,-0.0287,-0.0288,-0.0289,-0.029,-0.0271,-0.0269,-0.0267,-0.0236,0,0,-0.0262,-0.0261,0,0,0,0,0,0,0,0,-0.0251,-0.0252,-0.0269,-0.0271,-0.0273,-0.0279,-0.0257,-0.0256,-0.0287,-0.0279,-0.0289,-0.029,-0.0272,-0.027,-0.0266,-0.0235,-0.0234,-0.0262,-0.0261,-0.026,-0.026,0,0,0,0,0,0,0,-0.0251,-0.0251,-0.0258,-0.027,-0.0272,-0.0275,-0.0276,-0.0256,-0.0266,-0.0279,-0.0282,-0.0287,-0.0272,-0.0267,-0.0265,-0.0234,-0.0262,-0.0261,-0.0259,-0.0259,-0.0051,-0.0047,0,0,0,0,0,0,-0.0255,-0.0251,-0.0258,-0.0259,-0.0268,-0.0274,-0.0276,-0.0274,-0.0267,-0.0268,-0.0286,-0.0288,-0.027,-0.0267,-0.0265,-0.0122,-0.026,-0.0259,-0.0258,-0.0055,-0.005,-0.0045,0,0,0,0,0,0,-0.0255,-0.0255,-0.0258,-0.0258,-0.0259,-0.0274,-0.0271,-0.0274,-0.0271,-0.0273,-0.0273,-0.0283,-0.027,-0.0267,-0.0227,-0.0126,-0.0258,-0.0256,-0.0061,-0.0054,-0.0047,0.0096,0,0,0,0,0,0,-0.0254,-0.0255,-0.025,-0.0258,-0.0259,-0.0245,-0.0271,-0.0273,-0.0274,-0.0277,-0.027,-0.0269,-0.0271,-0.023,-0.0225,-0.0126,-0.0255,-0.0066,-0.0057,-0.005,0.0086,0.0107,0.0125,0,0,0,0,0,-0.0254,-0.0235,-0.0249,-0.025,-0.0253,-0.0244,-0.0243,-0.0256,-0.0273,-0.026,-0.0248,-0.027,-0.0171,-0.0226,-0.0222,-0.0119,-0.007,-0.006,-0.005,0.0077,0.0103,0.0125,0,0,0,0,0,0,-0.0217,-0.0237,-0.0251,-0.0238,-0.0241,-0.0248,-0.0236,-0.0252,-0.0234,-0.0233,-0.024,-0.0237,-0.0151,-0.016,-0.022,-0.0029,-0.0112,-0.0101,-0.0016,0.0008,0.0027,0.0068,-0.0253,0,0,0,0,0,-0.0211,-0.0207,-0.0223,-0.0209,-0.0211,-0.0225,-0.0223,-0.0232,-0.0223,-0.0218,-0.0212,-0.0176,-0.0103,-0.0076,-0.0037,0.0044,0.002,0.0125,0.0145,0.0161,0.0202,0.0243,0.0269,-0.0012,-0.0012,-0.0012,0,0,-0.0192,-0.0202,-0.0199,-0.0202,-0.0205,-0.0161,-0.0225,-0.0214,-0.015,-0.0216,-0.0132,-0.0121,-0.0069,0.0039,0.008,0.004,0.0222,0.0174,0.0187,0.022,0.0256,0.0283,0.0307,-0.0005,-0.0006,-0.0007,0,0,-0.0128,-0.0161,-0.0125,-0.0121,-0.0124,-0.0124,-0.012,-0.0124,-0.01,-0.0042,-0.0032,0.0042,0.0093,0.0188,0.024,0.0393,0.0319,0.0398,0.0538,0.0577,0.06,0.0619,0.0585,0.06,0.0415,0.0415,0.0415,0,-0.01,-0.0049,-0.011,-0.0063,-0.0031,-0.0096,-0.002,-0.0,0.0015,0.007,0.0004,0.0167,0.0195,0.0397,0.0461,0.0446,0.0405,0.0436,0.06,0.062,0.0637,0.0597,0.0613,0.0423,0.0422,0.0421,0.0421,0,0.0007,0.0049,0.0073,0.012,0.0134,0.0185,0.0195,0.0225,0.0224,0.0255,0.0392,0.0418,0.0518,0.056,0.056,0.0743,0.0647,0.0608,0.053,0.0674,0.0622,0.0636,0.0435,0.0432,0.0429,0.0427,0,0,0.0106,0.0145,0.0164,0.0216,0.0244,0.0271,0.0374,0.0471,0.0548,0.0569,0.0691,0.0842,0.081,0.087,0.0877,0.0934,0.1017,0.0829,0.0827,0.0777,0.1032,0.0922,0.0924,0.0975,0.0979,0.0983,0.0928,0,0.0236,0.0358,0.035,0.0489,0.056,0.0541,0.0635,0.0698,0.0732,0.0812,0.0882,0.0971,0.0943,0.0967,0.1038,0.1021,0.1065,0.1032,0.0917,0.0914,0.0786,0.0943,0.0891,0.0836,0.0941,0.0943,0.0944,0,0.0396,0.0446,0.0594,0.068,0.0708,0.0769,0.089,0.0962,0.1057,0.1075,0.1168,0.1152,0.1288,0.1187,0.1264,0.1221,0.1161,0.1125,0.112,0.0989,0.0833,0.0722,0.0856,0.0716,0.0964,0.0962,0.0961,0,0.0529,0.0647,0.0768,0.0798,0.0862,0.0931,0.0972,0.1058,0.1123,0.1223,0.1242,0.1361,0.1375,0.1376,0.1303,0.127,0.131,0.1245,0.1097,0.1083,0.1012,0.0986,0.0995,0.1304,0.1304,0.1304,0.1304,0,0.0704,0.0801,0.0829,0.0884,0.1002,0.1022,0.1146,0.1192,0.1269,0.1353,0.1366,0.1427,0.1415,0.141,0.135,0.1266,0.1346,0.1166,0.11,0.1054,0.1034,0.0882,0.0808,0.1302,0.1303,0.1303,0.1303,0,0.0822,0.0868,0.0966,0.1028,0.1059,0.1122,0.1193,0.1266,0.1326,0.1422,0.1441,0.1483,0.1466,0.1418,0.1389,0.1299,0.1148,0.1181,0.109,0.1018,0.0735,0.0671,0.0637,0.0571,0.102,0.1018,0.1016,0,0.089,0.0954,0.1014,0.1049,0.1071,0.1159,0.1209,0.1286,0.1349,0.1458,0.15,0.1505,0.1535,0.1432,0.1271,0.1137,0.1051,0.097,0.0947,0.076,0.0641,0.0615,0.0562,0.0881,0.0878,0.0876,0.0874,0,0.0958,0.0963,0.1003,0.1069,0.1127,0.1201,0.1282,0.134,0.1431,0.1504,0.1597,0.1637,0.1514,0.137,0.1147,0.1043,0.0853,0.091,0.0784,0.0616,0.053,0.0418,0.0814,0.0852,0.0854,0.0856,0.0857,0.0858,0.0946,0.0967,0.1007,0.1072,0.1139,0.1228,0.1293,0.1375,0.1477,0.1593,0.1652,0.1726,0.1492,0.1186,0.1009,0.06,0.0657,0.0492,0.0447,0.0451,0.0367,0.068,0.0601,0.0602,0.0603,0.0603,0.0604,0,0.0914,0.0956,0.1014,0.1087,0.1147,0.1204,0.1326,0.1393,0.1496,0.1614,0.1709,0.1659,0.133,0.1016,0.0473,0.0209,0.0154,0.0072,0.0054,0.0035,0.0368,0.0339,0.0122,0.0122,0.0122,0.0122,0.0122,0.0123,0.0895,0.0938,0.0982,0.1079,0.1134,0.1229,0.1298,0.1408,0.1513,0.1637,0.1699,0.1772,0.1499,0.0578,-0.0025,-0.0146,-0.0293,-0.035,-0.0399,-0.0172,-0.0135,-0.0099,-0.014,-0.0455,-0.0455,-0.0704,-0.0707,-0.0709]}],[{"header":{"parameterUnit":"m.s-1","parameterCategory":2,"la1":30.2991,"la2":30.254,"lo1":-89.0895,"lo2":-89.0444,"dy":0.0017,"dx":0.0017,"nx":28,"ny":28,"refTime":"2025-05-20T03:00:00:Z","depth":"2","parameterNumber":2,"parameterNumberName":"U-component_of_CURRENTS"},"data":[0,0,0,0,0,0,0,0,0,0,0,0,0,0,0,0,0,0,0,0,0,0,0,0,0,0,0,0,0,0,0,0,0,0,0,0,0,0,0,0,0,0,0,0,0,0,0,0,0,0,0,0,0,0,0,0,0,0,0.1364,0.1365,0,0.1442,0.1443,0.1443,0.1479,0.1479,0.1479,0.148,0.151,0.1511,0.1511,0,0,0,0,0,0,0,0,0,0,0,0,0,0.1238,0.124,0.1364,0.1365,0.1366,0.1442,0.1443,0.1444,0.1479,0.1479,0.1479,0.148,0.151,0.1511,0.1511,0,0,0,0,0,0,0,0,0,0,0,0,0,0.1298,0.124,0.1363,0.1396,0.1401,0.1442,0.1443,0.1444,0.1478,0.1479,0.1479,0.148,0.151,0.1511,0.1512,0.1506,0,0,0.1514,0.1514,0,0,0,0,0,0,0,0,0.1294,0.1302,0.139,0.1394,0.1399,0.1455,0.141,0.1464,0.1478,0.1444,0.148,0.148,0.149,0.1493,0.15,0.1508,0.1509,0.1514,0.1514,0.1515,0.1515,0,0,0,0,0,0,0,0.129,0.1299,0.139,0.1392,0.1397,0.1406,0.1414,0.142,0.1459,0.1447,0.1451,0.1467,0.1492,0.15,0.1501,0.151,0.1514,0.1515,0.1515,0.1515,0.1701,0.1706,0,0,0,0,0,0,0.129,0.1295,0.1388,0.1393,0.1352,0.1408,0.1417,0.1433,0.146,0.1466,0.1466,0.1468,0.1498,0.15,0.1503,0.1622,0.1515,0.1516,0.1516,0.1697,0.1702,0.1707,0,0,0,0,0,0,0.1287,0.1297,0.1385,0.1349,0.1362,0.141,0.1427,0.1434,0.1445,0.1476,0.1481,0.1471,0.1499,0.1501,0.153,0.1619,0.1516,0.1517,0.1692,0.1698,0.1705,0.1782,0,0,0,0,0,0,0.1283,0.1295,0.1302,0.1349,0.1364,0.1415,0.1427,0.1436,0.1457,0.146,0.1481,0.1485,0.1499,0.1529,0.153,0.1618,0.1517,0.1686,0.1695,0.1703,0.1774,0.1791,0.1805,0,0,0,0,0,0.1278,0.1297,0.1301,0.1313,0.1372,0.1416,0.1423,0.1456,0.1456,0.1465,0.149,0.1484,0.1586,0.153,0.1532,0.1623,0.1682,0.1692,0.1702,0.1767,0.1787,0.1805,0,0,0,0,0,0,0.1259,0.1304,0.131,0.1344,0.1376,0.1423,0.1441,0.1452,0.1477,0.1479,0.1496,0.1503,0.1578,0.1583,0.1522,0.1711,0.1651,0.1662,0.1701,0.172,0.1735,0.1752,0.1518,0,0,0,0,0,0.1253,0.1272,0.1316,0.1343,0.1358,0.1391,0.1411,0.143,0.1463,0.1474,0.1493,0.1544,0.1622,0.1649,0.1694,0.1757,0.1735,0.1836,0.1852,0.1864,0.1887,0.1918,0.1936,0.174,0.174,0.174,0,0,0.1257,0.1283,0.1296,0.1339,0.1365,0.1423,0.1404,0.1437,0.1503,0.1472,0.1547,0.1575,0.1649,0.1747,0.1786,0.1758,0.1906,0.1877,0.1887,0.1903,0.193,0.1948,0.1964,0.1747,0.1746,0.1745,0,0,0.1297,0.1292,0.1333,0.1358,0.1399,0.143,0.1438,0.1479,0.1511,0.1565,0.1608,0.1686,0.1743,0.1853,0.1912,0.2039,0.198,0.2059,0.2152,0.2182,0.2197,0.221,0.2173,0.2183,0.2074,0.2074,0.2074,0,0.1306,0.1376,0.1351,0.1403,0.1455,0.144,0.152,0.1549,0.1597,0.164,0.16,0.1774,0.1822,0.2014,0.2079,0.2078,0.2037,0.2064,0.2196,0.2209,0.2221,0.2181,0.219,0.2079,0.2079,0.2078,0.2078,0,0.1394,0.1447,0.1474,0.1546,0.1574,0.1638,0.1677,0.1706,0.1723,0.1761,0.1886,0.1945,0.2053,0.2111,0.2133,0.2291,0.2213,0.2195,0.2131,0.2244,0.2196,0.2204,0.2086,0.2085,0.2083,0.2082,0,0,0.147,0.1531,0.1552,0.1596,0.1667,0.1695,0.1796,0.1896,0.1948,0.1991,0.2086,0.226,0.2244,0.2316,0.2362,0.2415,0.2467,0.234,0.234,0.2273,0.246,0.2385,0.2385,0.2438,0.2441,0.2443,0.2377,0,0.1581,0.1694,0.1713,0.1834,0.19,0.1914,0.1995,0.2052,0.2089,0.2144,0.2237,0.2324,0.2339,0.2379,0.2444,0.2466,0.2496,0.2482,0.239,0.2387,0.2282,0.2397,0.2191,0.2115,0.2384,0.2385,0.2386,0,0.1708,0.1764,0.1893,0.1969,0.1997,0.2053,0.2152,0.2216,0.2289,0.2311,0.24,0.2411,0.2557,0.2502,0.2597,0.2565,0.2529,0.2521,0.2517,0.2432,0.233,0.2058,0.2118,0.2398,0.2397,0.2396,0.2396,0,0.1776,0.1906,0.2007,0.2038,0.2107,0.2161,0.2204,0.227,0.2308,0.2402,0.2411,0.2541,0.2587,0.2601,0.261,0.2579,0.2637,0.2587,0.2485,0.2474,0.2283,0.2253,0.2628,0.2628,0.2628,0.2628,0.2629,0,0.1905,0.1982,0.2031,0.2068,0.2149,0.2189,0.2253,0.2309,0.2371,0.2404,0.248,0.2519,0.2605,0.2636,0.2618,0.2587,0.2645,0.2525,0.2481,0.2303,0.2277,0.2517,0.2505,0.2626,0.2626,0.2627,0.2627,0,0.1932,0.2003,0.2078,0.2149,0.2165,0.22,0.2234,0.2264,0.2342,0.2386,0.2415,0.2512,0.2555,0.2611,0.2638,0.2593,0.2577,0.254,0.2303,0.2235,0.237,0.2363,0.2398,0.2396,0.2394,0.2392,0.239,0,0.1948,0.1981,0.2053,0.2066,0.209,0.213,0.2139,0.2233,0.2266,0.2361,0.2384,0.2459,0.2468,0.2493,0.2447,0.2402,0.2514,0.2199,0.2151,0.2408,0.236,0.2357,0.2354,0.1895,0.189,0.1885,0.1882,0,0.1906,0.1923,0.1961,0.1998,0.2028,0.2043,0.2085,0.2095,0.2197,0.224,0.2299,0.2311,0.2319,0.2202,0.2175,0.2118,0.2199,0.2104,0.2454,0.2005,0.1934,0.1887,0.19,0.1842,0.1846,0.1849,0.1851,0.1853,0.1821,0.1842,0.1885,0.1921,0.1952,0.1962,0.1953,0.1992,0.2025,0.2053,0.2126,0.2051,0.2034,0.1848,0.181,0.1786,0.1906,0.1836,0.1849,0.1867,0.1841,0.1773,0.164,0.1643,0.1645,0.1648,0.1649,0,0.1705,0.1771,0.179,0.1846,0.1839,0.191,0.192,0.1874,0.1873,0.1851,0.1863,0.1569,0.1489,0.1509,0.1383,0.1378,0.1353,0.1363,0.1329,0.1367,0.1402,0.1354,0.1023,0.1021,0.102,0.1019,0,0,0.1667,0.1665,0.1714,0.173,0.177,0.1772,0.1779,0.1707,0.1652,0.1443,0.1339,0.1382,0.139,0.1153,0.1149,0.1087,0.1217,0.1037,0.153,0.1524,0.1557,0.1655,0.1622,0,0,0,0,0]},{"header":{"parameterUnit":"m.s-1","parameterCategory":2,"la1":30.2991,"la2":30.254,"lo1":-89.0895,"lo2":-89.0444,"dy":0.0017,"dx":0.0017,"nx":28,"ny":28,"refTime":"2025-05-20T03:00:00:Z","depth":"2","parameterNumber":3,"parameterNumberName":"V-component_of_CURRENTS"},"data":[0,0,0,0,0,0,0,0,0,0,0,0,0,0,0,0,0,0,0,0,0,0,0,0,0,0,0,0,0,0,0,0,0,0,0,0,0,0,0,0,0,0,0,0,0,0,0,0,0,0,0,0,0,0,0,0,0,0,-0.0338,-0.0339,0,-0.0351,-0.0351,-0.035,-0.037,-0.0371,-0.0372,-0.0372,-0.0371,-0.037,-0.0369,0,0,0,0,0,0,0,0,0,0,0,0,0,-0.0326,-0.0326,-0.0338,-0.0339,-0.0339,-0.0351,-0.0351,-0.035,-0.037,-0.0371,-0.0372,-0.0372,-0.0371,-0.037,-0.0369,0,0,0,0,0,0,0,0,0,0,0,0,0,-0.0331,-0.0326,-0.0338,-0.0352,-0.0354,-0.0351,-0.0351,-0.035,-0.037,-0.0371,-0.0372,-0.0373,-0.0371,-0.037,-0.0369,-0.0345,0,0,-0.0366,-0.0366,0,0,0,0,0,0,0,0,-0.0331,-0.0331,-0.035,-0.0351,-0.0353,-0.0362,-0.0346,-0.0349,-0.037,-0.0361,-0.0372,-0.0373,-0.0368,-0.0367,-0.0363,-0.0344,-0.0344,-0.0366,-0.0366,-0.0365,-0.0365,0,0,0,0,0,0,0,-0.033,-0.0331,-0.034,-0.035,-0.0352,-0.0356,-0.0358,-0.0346,-0.0356,-0.0362,-0.0364,-0.037,-0.0368,-0.0364,-0.0364,-0.0344,-0.0366,-0.0365,-0.0365,-0.0364,-0.0217,-0.0214,0,0,0,0,0,0,-0.0334,-0.033,-0.034,-0.0341,-0.0347,-0.0356,-0.0358,-0.0356,-0.0357,-0.0359,-0.0369,-0.0371,-0.0365,-0.0365,-0.0364,-0.0258,-0.0365,-0.0364,-0.0364,-0.0221,-0.0217,-0.0213,0,0,0,0,0,0,-0.0333,-0.0334,-0.0339,-0.0339,-0.034,-0.0356,-0.0354,-0.0356,-0.0354,-0.0363,-0.0364,-0.0365,-0.0366,-0.0365,-0.0337,-0.0261,-0.0364,-0.0363,-0.0225,-0.0219,-0.0215,-0.0096,0,0,0,0,0,0,-0.0333,-0.0334,-0.0328,-0.0339,-0.034,-0.0328,-0.0353,-0.0356,-0.0357,-0.0359,-0.036,-0.0361,-0.0367,-0.0338,-0.0336,-0.0262,-0.0362,-0.0229,-0.0222,-0.0216,-0.0104,-0.0087,-0.0073,0,0,0,0,0,-0.0332,-0.0315,-0.0328,-0.0329,-0.0334,-0.0328,-0.0328,-0.0341,-0.0356,-0.0344,-0.034,-0.0361,-0.0296,-0.0336,-0.0334,-0.0257,-0.0232,-0.0224,-0.0217,-0.0111,-0.009,-0.0073,0,0,0,0,0,0,-0.0297,-0.0317,-0.033,-0.0318,-0.0322,-0.0332,-0.0322,-0.0336,-0.0324,-0.0323,-0.0337,-0.0336,-0.0272,-0.0286,-0.033,-0.0193,-0.0259,-0.0251,-0.0179,-0.016,-0.0145,-0.0182,-0.0362,0,0,0,0,0,-0.0291,-0.0287,-0.0304,-0.0292,-0.0294,-0.0308,-0.0307,-0.0316,-0.0313,-0.0309,-0.0309,-0.0288,-0.0236,-0.0221,-0.0193,-0.0138,-0.0239,-0.0079,-0.0064,-0.0051,-0.0077,-0.0209,-0.0211,-0.0188,-0.0188,-0.0188,0,0,-0.0273,-0.0283,-0.0281,-0.0285,-0.0288,-0.0258,-0.0308,-0.0299,-0.0256,-0.0309,-0.025,-0.0241,-0.021,-0.0132,-0.0103,-0.0138,-0.0095,-0.0041,-0.003,-0.0065,-0.0202,-0.0205,-0.0209,-0.0183,-0.0184,-0.0185,0,0,-0.0221,-0.0245,-0.0217,-0.0215,-0.022,-0.0224,-0.022,-0.0226,-0.0212,-0.0169,-0.0166,-0.0141,-0.0078,-0.0046,-0.0015,0.0094,-0.001,0.0139,0.0184,0.0059,0.0053,0.0047,-0.004,-0.0055,0.0146,0.0147,0.0147,0,-0.0196,-0.0165,-0.0206,-0.0171,-0.0156,-0.0201,-0.0153,-0.0134,-0.0126,-0.0123,-0.0134,-0.0069,-0.0039,0.0047,0.0114,0.0126,0.0037,0.0112,0.0071,0.0062,0.0054,-0.0035,-0.0054,0.0153,0.0153,0.0152,0.0151,0,-0.0114,-0.009,-0.007,-0.004,-0.0031,-0.0,0.0007,0.0021,0.0018,0.001,0.0056,0.0073,0.0098,0.0152,0.0179,0.0188,0.0143,0.0099,0.0006,0.0057,-0.0037,-0.0059,0.0163,0.016,0.0159,0.0157,0,0,-0.0037,-0.0018,-0.0003,0.0004,0.0039,0.0038,0.0119,0.0142,0.0156,0.0159,0.0161,0.0272,0.0221,0.0252,0.0278,0.0197,0.0113,0.0142,0.0132,0.0026,-0.0156,-0.0124,-0.0145,0.0042,0.0038,0.0035,-0.0184,0,0.0051,0.0109,0.0121,0.0186,0.0205,0.0197,0.0264,0.0269,0.0268,0.0253,0.0237,0.0256,0.0286,0.0297,0.0232,0.014,0.0054,0.0177,-0.0166,-0.0175,-0.0179,-0.017,-0.0054,-0.0236,-0.0206,-0.021,-0.0212,0,0.0154,0.0162,0.0225,0.0246,0.0258,0.031,0.0335,0.0375,0.0359,0.0357,0.0336,0.0293,0.0265,0.0234,0.0053,0.0124,0.0001,-0.0104,-0.0117,-0.0159,-0.0185,-0.0288,-0.0278,-0.025,-0.0247,-0.0244,-0.0242,0,0.0166,0.0248,0.0277,0.0289,0.031,0.0354,0.0385,0.0399,0.0404,0.039,0.038,0.0302,0.0297,0.0081,-0.0038,-0.0031,-0.0307,-0.034,-0.0438,-0.0436,-0.0443,-0.0435,-0.0541,-0.054,-0.054,-0.0539,-0.0539,0,0.0218,0.0245,0.0288,0.0272,0.03,0.0357,0.0358,0.0402,0.0431,0.0428,0.0422,0.0411,0.025,0.0107,-0.0085,-0.0295,-0.0347,-0.0449,-0.0505,-0.0385,-0.037,-0.0473,-0.0462,-0.0547,-0.0546,-0.0544,-0.0543,0,0.0146,0.0214,0.023,0.0277,0.0274,0.0292,0.0309,0.0344,0.0413,0.0416,0.0417,0.0459,0.0311,0.0128,-0.0177,-0.0291,-0.0562,-0.0629,-0.0439,-0.0468,-0.0607,-0.0587,-0.0816,-0.0816,-0.0817,-0.0818,-0.0819,0,0.0093,0.0073,0.0122,0.0153,0.017,0.0175,0.0198,0.029,0.0364,0.0432,0.0481,0.0407,0.0335,-0.0027,-0.022,-0.0552,-0.0599,-0.065,-0.0618,-0.0611,-0.0643,-0.0621,-0.06,-0.0569,-0.0568,-0.0567,-0.0566,0,-0.0075,-0.0036,-0.0023,0.0025,0.0101,0.0088,0.018,0.0219,0.0365,0.0406,0.048,0.0398,0.023,0.0018,-0.0283,-0.0493,-0.0591,-0.0637,-0.0737,-0.049,-0.039,-0.0416,-0.0403,-0.0555,-0.0556,-0.0557,-0.0557,-0.0558,-0.0207,-0.0174,-0.0103,-0.0056,0.0049,0.0135,0.0123,0.0285,0.036,0.0517,0.043,0.0401,0.0275,-0.0077,-0.0317,-0.049,-0.0553,-0.0643,-0.0644,-0.0646,-0.0551,-0.0456,-0.0614,-0.0615,-0.0617,-0.0618,-0.0619,0,-0.0345,-0.0242,-0.0199,-0.0046,0.0073,0.0125,0.0219,0.0236,0.0382,0.0517,0.0521,0.0356,0.0164,-0.001,-0.0227,-0.0438,-0.0424,-0.0514,-0.0435,-0.0445,-0.0454,-0.0345,-0.0357,-0.0357,-0.0357,-0.0357,0,0,-0.0372,-0.0326,-0.0247,-0.0032,0.0093,0.0232,0.0303,0.0338,0.043,0.0505,0.0569,0.0495,0.0274,0.0162,-0.0068,-0.0197,-0.0281,-0.0225,-0.0412,-0.0298,-0.0304,-0.0503,-0.0344,0,0,0,0,0]}],[{"header":{"parameterUnit":"m.s-1","parameterCategory":2,"la1":30.2991,"la2":30.254,"lo1":-89.0895,"lo2":-89.0444,"dy":0.0017,"dx":0.0017,"nx":28,"ny":28,"refTime":"2025-05-20T03:00:00:Z","depth":"4","parameterNumber":2,"parameterNumberName":"U-component_of_CURRENTS"},"data":[0,0,0,0,0,0,0,0,0,0,0,0,0,0,0,0,0,0,0,0,0,0,0,0,0,0,0,0,0,0,0,0,0,0,0,0,0,0,0,0,0,0,0,0,0,0,0,0,0,0,0,0,0,0,0,0,0,0,0.0368,0.0368,0,0.0325,0.0325,0.0324,0.0298,0.0298,0.0297,0.0297,0.0459,0.0463,0.0468,0,0,0,0,0,0,0,0,0,0,0,0,0,0.0418,0.0418,0.0368,0.0368,0.0367,0.0325,0.0325,0.0324,0.0298,0.0298,0.0297,0.0297,0.0457,0.0463,0.0468,0,0,0,0,0,0,0,0,0,0,0,0,0,0.0389,0.0417,0.0368,0.0348,0.0346,0.0325,0.0325,0.0324,0.0298,0.0298,0.0297,0.0297,0.0456,0.0462,0.0469,0.0517,0,0,0.0489,0.0492,0,0,0,0,0,0,0,0,0.0391,0.0387,0.0352,0.035,0.0347,0.0316,0.0401,0.0398,0.0298,0.0317,0.0297,0.0297,0.043,0.0438,0.0429,0.0524,0.0531,0.049,0.0494,0.0497,0.0499,0,0,0,0,0,0,0,0.0393,0.0389,0.0352,0.0351,0.0348,0.0338,0.0334,0.04,0.038,0.0315,0.0313,0.0307,0.043,0.0423,0.0434,0.0534,0.049,0.0496,0.05,0.0503,0.0772,0.0775,0,0,0,0,0,0,0.0397,0.0391,0.0353,0.0351,0.0367,0.0337,0.0332,0.0327,0.0375,0.038,0.0307,0.0306,0.0411,0.0426,0.044,0.0623,0.0497,0.0503,0.0507,0.0769,0.0773,0.0776,0,0,0,0,0,0,0.0398,0.0394,0.0355,0.0369,0.0363,0.0337,0.0331,0.0326,0.0349,0.0366,0.0376,0.0338,0.0412,0.043,0.0532,0.0625,0.0506,0.0512,0.0765,0.077,0.0774,0.0913,0,0,0,0,0,0,0.04,0.0395,0.0414,0.0369,0.0363,0.0375,0.0331,0.0325,0.0344,0.0342,0.0397,0.0408,0.0413,0.0522,0.0538,0.0632,0.0518,0.0761,0.0767,0.0773,0.0905,0.0922,0.0937,0,0,0,0,0,0.0402,0.0415,0.0415,0.0411,0.0382,0.0377,0.0374,0.0353,0.0346,0.0371,0.0408,0.0408,0.057,0.053,0.0549,0.0647,0.0758,0.0766,0.0772,0.0897,0.0919,0.0936,0,0,0,0,0,0,0.0435,0.0412,0.0411,0.0415,0.0416,0.0373,0.0396,0.0381,0.0423,0.0443,0.0452,0.0468,0.059,0.0596,0.0551,0.0738,0.0665,0.0676,0.0753,0.0773,0.0789,0.0715,0.0523,0,0,0,0,0,0.0456,0.0472,0.0444,0.0458,0.0465,0.0443,0.0446,0.0437,0.0453,0.0469,0.0514,0.0567,0.0628,0.0681,0.0732,0.0845,0.0777,0.0917,0.0934,0.0947,0.0898,0.0829,0.0833,0.0799,0.0799,0.0799,0,0,0.047,0.0464,0.0471,0.047,0.0472,0.0494,0.0446,0.0471,0.0513,0.049,0.0598,0.0633,0.0667,0.0783,0.084,0.0808,0.0945,0.0956,0.0968,0.091,0.0836,0.0839,0.0841,0.0804,0.0803,0.0802,0,0,0.0497,0.0512,0.0532,0.0547,0.0564,0.056,0.0579,0.0584,0.0619,0.072,0.0707,0.0766,0.0905,0.0906,0.0933,0.1065,0.1025,0.1132,0.117,0.1107,0.1107,0.1106,0.1114,0.1112,0.1149,0.1149,0.1149,0,0.0516,0.0528,0.054,0.0568,0.058,0.0599,0.062,0.0672,0.0719,0.0736,0.0787,0.0887,0.0944,0.0994,0.106,0.1099,0.1076,0.1101,0.1122,0.1119,0.1115,0.1123,0.1119,0.1157,0.1156,0.1155,0.1154,0,0.0542,0.0572,0.0594,0.0638,0.0666,0.0695,0.0749,0.0813,0.0878,0.0894,0.0987,0.1043,0.1075,0.1144,0.1165,0.1187,0.1191,0.1143,0.1062,0.1126,0.1133,0.1126,0.1167,0.1165,0.1162,0.1161,0,0,0.0515,0.059,0.0604,0.0618,0.07,0.0705,0.0821,0.0865,0.0895,0.101,0.1029,0.1166,0.1162,0.1184,0.1214,0.1188,0.1216,0.1184,0.1177,0.1173,0.1135,0.1101,0.109,0.1177,0.1175,0.1173,0.1182,0,0.0524,0.0564,0.0618,0.0674,0.0683,0.0756,0.0839,0.09,0.0981,0.103,0.108,0.1139,0.1196,0.123,0.1219,0.1201,0.119,0.122,0.1086,0.1083,0.1025,0.1076,0.1166,0.1177,0.1175,0.1174,0.1173,0,0.0509,0.0538,0.0574,0.0639,0.0655,0.0714,0.0788,0.0872,0.0956,0.1018,0.1066,0.1107,0.1147,0.1165,0.1147,0.1175,0.1164,0.1141,0.1139,0.1024,0.103,0.1077,0.1159,0.116,0.1161,0.1162,0.1163,0,0.0408,0.0496,0.0514,0.0541,0.0634,0.068,0.0756,0.085,0.0917,0.0999,0.1038,0.107,0.1115,0.108,0.1136,0.1134,0.1082,0.1057,0.1005,0.1007,0.097,0.0969,0.0977,0.0977,0.0977,0.0977,0.0977,0,0.0351,0.0367,0.0474,0.0476,0.0522,0.0618,0.0685,0.0766,0.087,0.0926,0.1024,0.1053,0.1089,0.1105,0.1108,0.107,0.1069,0.0993,0.098,0.1049,0.1056,0.0971,0.097,0.0978,0.0978,0.0978,0.0978,0,0.0228,0.0294,0.0313,0.0422,0.0467,0.0505,0.0671,0.071,0.0833,0.091,0.0947,0.1043,0.1057,0.1093,0.1049,0.104,0.0991,0.0967,0.1104,0.1102,0.0968,0.0975,0.0878,0.0877,0.0875,0.0874,0.0873,0,0.0167,0.016,0.0263,0.0296,0.0359,0.0453,0.0517,0.0674,0.073,0.0896,0.0905,0.0974,0.1028,0.0947,0.0983,0.0966,0.0945,0.0954,0.0891,0.0948,0.0946,0.0955,0.0964,0.0871,0.087,0.087,0.087,0,0.0061,0.0102,0.0132,0.0197,0.0268,0.0337,0.0454,0.0485,0.0666,0.0782,0.0836,0.0875,0.0879,0.0873,0.0893,0.0874,0.0963,0.0938,0.0939,0.0879,0.0937,0.0939,0.0949,0.0864,0.0865,0.0866,0.0866,0,0.0004,0.0007,0.006,0.0119,0.0182,0.0222,0.029,0.038,0.0462,0.0668,0.0676,0.0761,0.0846,0.0825,0.0838,0.0832,0.0788,0.0766,0.0776,0.0782,0.0749,0.0809,0.0665,0,0,0,0,0,-0.0034,-0.0024,-0.0003,0.0062,0.0107,0.0156,0.025,0.0323,0.0497,0.0501,0.0601,0.0615,0.0661,0.0692,0.0654,0.0768,0.0777,0.0726,0.0751,0.0836,0.0842,0.0816,0,0,0,0,0,0,-0.0047,-0.0035,-0.0026,-0.0002,0.0031,0.0086,0.0133,0.0238,0.0246,0.042,0.041,0.0581,0.0582,0.0659,0.0641,0.0658,0.0662,0.0797,0.0796,0.0833,0.0838,0.0843,0.0818,0,0,0,0,0]},{"header":{"parameterUnit":"m.s-1","parameterCategory":2,"la1":30.2991,"la2":30.254,"lo1":-89.0895,"lo2":-89.0444,"dy":0.0017,"dx":0.0017,"nx":28,"ny":28,"refTime":"2025-05-20T03:00:00:Z","depth":"4","parameterNumber":3,"parameterNumberName":"V-component_of_CURRENTS"},"data":[0,0,0,0,0,0,0,0,0,0,0,0,0,0,0,0,0,0,0,0,0,0,0,0,0,0,0,0,0,0,0,0,0,0,0,0,0,0,0,0,0,0,0,0,0,0,0,0,0,0,0,0,0,0,0,0,0,0,0.0259,0.0258,0,0.0112,0.011,0.0108,0.0002,0.0002,0.0001,0.0001,-0.0254,-0.026,-0.0267,0,0,0,0,0,0,0,0,0,0,0,0,0,0.0333,0.0332,0.0259,0.0258,0.0257,0.0113,0.011,0.0108,0.0002,0.0002,0.0001,0.0001,-0.0252,-0.0259,-0.0267,0,0,0,0,0,0,0,0,0,0,0,0,0,0.025,0.0332,0.026,0.0191,0.0184,0.0113,0.011,0.0107,0.0002,0.0002,0.0001,0.0001,-0.0249,-0.0259,-0.0268,-0.0318,0,0,-0.0298,-0.0302,0,0,0,0,0,0,0,0,0.0255,0.0246,0.0202,0.0196,0.0188,0.008,0.0043,-0.0039,0.0002,0.0065,0.0001,0.0,-0.0148,-0.0166,-0.0199,-0.033,-0.034,-0.0299,-0.0305,-0.0309,-0.0312,0,0,0,0,0,0,0,0.0261,0.0251,0.0195,0.0201,0.0192,0.0128,0.0116,0.0026,-0.0043,0.0059,0.0053,0.0046,-0.0154,-0.019,-0.0206,-0.0344,-0.0298,-0.0307,-0.0313,-0.0317,-0.058,-0.0581,0,0,0,0,0,0,0.0297,0.0258,0.02,0.0191,0.0227,0.0128,0.0114,0.011,-0.004,-0.0061,0.0047,0.0042,-0.0173,-0.0195,-0.0216,-0.0351,-0.0309,-0.0318,-0.0323,-0.0579,-0.058,-0.0581,0,0,0,0,0,0,0.0299,0.0293,0.0206,0.0225,0.0211,0.0129,0.0124,0.0108,0.0048,-0.0048,-0.0072,0.0002,-0.0174,-0.0202,-0.0316,-0.0359,-0.0322,-0.0331,-0.0577,-0.0579,-0.0581,-0.0579,0,0,0,0,0,0,0.0302,0.0295,0.0283,0.0228,0.0211,0.0147,0.0125,0.0106,0.0049,0.004,-0.0094,-0.0116,-0.0177,-0.0301,-0.0325,-0.0372,-0.0339,-0.0576,-0.0578,-0.058,-0.0578,-0.058,-0.0583,0,0,0,0,0,0.0305,0.0283,0.0284,0.0275,0.0205,0.0147,0.013,0.0066,0.0048,0.0011,-0.0073,-0.0114,-0.0331,-0.031,-0.0338,-0.0389,-0.0575,-0.0577,-0.058,-0.0576,-0.058,-0.0583,0,0,0,0,0,0,0.0274,0.0269,0.0268,0.0237,0.0196,0.013,0.0084,0.0057,-0.0037,-0.006,-0.0141,-0.017,-0.0282,-0.0331,-0.0305,-0.0467,-0.0456,-0.0464,-0.0443,-0.0448,-0.045,-0.0457,-0.0347,0,0,0,0,0,0.0278,0.027,0.0248,0.0212,0.02,0.0144,0.0107,0.0069,-0.0006,-0.0049,-0.0139,-0.023,-0.0311,-0.0374,-0.0456,-0.0556,-0.0546,-0.0602,-0.0604,-0.0606,-0.063,-0.0628,-0.0632,-0.059,-0.059,-0.059,0,0,0.0245,0.0247,0.0233,0.0208,0.0167,0.0114,0.0116,0.0051,-0.0014,-0.0064,-0.02,-0.0251,-0.0337,-0.0443,-0.0498,-0.0497,-0.0605,-0.061,-0.0611,-0.0634,-0.0631,-0.0635,-0.0638,-0.0592,-0.0591,-0.0591,0,0,0.0171,0.0191,0.0154,0.0134,0.0094,0.0069,0.0054,-0.0017,-0.0066,-0.0169,-0.0218,-0.0295,-0.0434,-0.0503,-0.055,-0.062,-0.0612,-0.0638,-0.0677,-0.0674,-0.0677,-0.068,-0.0627,-0.0626,-0.0647,-0.0647,-0.0647,0,0.0121,0.0099,0.0123,0.0082,0.0059,0.005,-0.0009,-0.0064,-0.0172,-0.0203,-0.0218,-0.0386,-0.0466,-0.0574,-0.0604,-0.0631,-0.06,-0.0656,-0.0675,-0.0678,-0.0681,-0.0627,-0.0625,-0.0647,-0.0647,-0.0647,-0.0647,0,0.0024,0.0005,-0.0022,-0.0055,-0.0081,-0.013,-0.0163,-0.0213,-0.0249,-0.029,-0.0389,-0.0475,-0.0563,-0.0599,-0.0638,-0.0706,-0.0663,-0.0667,-0.066,-0.0685,-0.0626,-0.0624,-0.0647,-0.0647,-0.0647,-0.0647,0,0,-0.0099,-0.0088,-0.0109,-0.0081,-0.0143,-0.0143,-0.025,-0.0302,-0.0312,-0.0425,-0.0457,-0.0615,-0.0617,-0.0672,-0.0714,-0.0739,-0.0728,-0.0719,-0.0719,-0.0655,-0.0672,-0.0622,-0.0614,-0.072,-0.072,-0.0721,-0.0605,0,-0.0194,-0.0218,-0.0235,-0.0271,-0.0253,-0.0275,-0.0334,-0.0377,-0.0411,-0.0441,-0.0525,-0.0583,-0.0656,-0.0672,-0.0717,-0.0723,-0.073,-0.0757,-0.067,-0.0668,-0.0612,-0.0615,-0.0724,-0.0604,-0.0603,-0.0603,-0.0602,0,-0.029,-0.0262,-0.0289,-0.0235,-0.0241,-0.0288,-0.0283,-0.0344,-0.0401,-0.0426,-0.0508,-0.0546,-0.0646,-0.0666,-0.072,-0.0723,-0.0713,-0.0709,-0.0704,-0.0668,-0.0617,-0.0588,-0.0599,-0.0599,-0.0599,-0.0599,-0.06,0,-0.0246,-0.0294,-0.0273,-0.027,-0.0248,-0.0273,-0.0297,-0.034,-0.033,-0.0417,-0.0396,-0.0521,-0.0545,-0.0594,-0.0635,-0.0663,-0.0625,-0.065,-0.0593,-0.0585,-0.0663,-0.0662,-0.0667,-0.0667,-0.0667,-0.0667,-0.0668,0,-0.0254,-0.023,-0.0237,-0.0189,-0.0142,-0.0196,-0.0166,-0.0205,-0.0248,-0.0201,-0.0373,-0.0341,-0.0526,-0.0533,-0.0582,-0.057,-0.0583,-0.0601,-0.0567,-0.0658,-0.0658,-0.0658,-0.0658,-0.0663,-0.0664,-0.0665,-0.0666,0,-0.0136,-0.0169,-0.0088,-0.0084,-0.0083,-0.0033,-0.0037,-0.0007,-0.0095,-0.0042,-0.0072,-0.019,-0.0238,-0.0365,-0.0416,-0.0471,-0.0481,-0.0464,-0.0509,-0.0477,-0.045,-0.0452,-0.0399,-0.0397,-0.0395,-0.0393,-0.0392,0,-0.0048,-0.0007,0.0048,0.0092,0.0098,0.0135,0.0166,0.0097,0.0127,0.0093,0.0145,0.0057,-0.0023,-0.0071,-0.0217,-0.0321,-0.0351,-0.0352,-0.0484,-0.0459,-0.043,-0.0435,-0.044,-0.0389,-0.0388,-0.0388,-0.0387,0,0.012,0.0115,0.0165,0.0257,0.03,0.0378,0.0391,0.0423,0.0352,0.0345,0.0318,0.0204,0.016,-0.0005,-0.0105,-0.017,-0.0368,-0.0332,-0.0339,-0.0463,-0.0445,-0.0419,-0.0426,-0.038,-0.0381,-0.0382,-0.0382,0,0.0212,0.0271,0.0277,0.0365,0.0452,0.0499,0.052,0.0508,0.0513,0.0442,0.049,0.0336,0.0257,0.009,0.0044,-0.0081,-0.0136,-0.0197,-0.0212,-0.0222,-0.0244,-0.02,-0.0028,0,0,0,0,0,0.0279,0.0283,0.0367,0.0411,0.0514,0.054,0.0609,0.0598,0.059,0.0593,0.0501,0.045,0.0263,0.02,0.0082,0.0071,-0.0155,-0.0065,-0.0234,-0.0341,-0.0349,-0.0408,0,0,0,0,0,0,0.0282,0.0326,0.0347,0.0414,0.046,0.053,0.0568,0.0563,0.0545,0.0538,0.0444,0.0432,0.0258,0.0311,0.0076,0.0048,-0.0071,-0.0134,-0.0135,-0.0336,-0.0344,-0.035,-0.0414,0,0,0,0,0]}]]